TimeEST,TemperatureF,Dew PointF,Humidity,Sea Level PressureIn,VisibilityMPH,Wind Direction,Wind SpeedMPH,Gust SpeedMPH,PrecipitationIn,Events,Conditions,WindDirDegrees,DateUTC
12:53 AM,36.0,19.0,50,29.90,10.0,NW,6.9,-,N/A,,Overcast,310,2013-03-03 05:53:00
1:53 AM,34.0,18.0,52,29.89,10.0,NW,8.1,-,N/A,,Mostly Cloudy,310,2013-03-03 06:53:00
2:53 AM,30.9,19.0,61,29.88,10.0,WNW,5.8,-,N/A,,Clear,290,2013-03-03 07:53:00
3:53 AM,30.0,19.0,64,29.89,10.0,WNW,4.6,-,N/A,,Scattered Clouds,290,2013-03-03 08:53:00
4:53 AM,32.0,19.0,59,29.90,10.0,WNW,5.8,-,N/A,,Overcast,290,2013-03-03 09:53:00
7:53 AM,34.0,19.9,56,29.93,10.0,WNW,5.8,-,N/A,,Overcast,300,2013-03-03 12:53:00
8:53 AM,36.0,19.0,50,29.94,10.0,NW,8.1,-,N/A,,Overcast,320,2013-03-03 13:53:00
9:53 AM,39.9,19.0,43,29.93,10.0,North,10.4,-,N/A,,Scattered Clouds,360,2013-03-03 14:53:00
10:53 AM,41.0,17.1,38,29.92,10.0,Calm,Calm,-,N/A,,Scattered Clouds,0,2013-03-03 15:53:00
11:53 AM,44.1,19.0,37,29.91,10.0,NNW,11.5,16.1,N/A,,Overcast,330,2013-03-03 16:53:00
12:53 PM,43.0,18.0,37,29.88,10.0,Variable,3.5,-,N/A,,Mostly Cloudy,0,2013-03-03 17:53:00
1:53 PM,44.1,18.0,35,29.85,10.0,WNW,8.1,-,N/A,,Overcast,300,2013-03-03 18:53:00
2:53 PM,46.0,19.0,34,29.84,10.0,Variable,6.9,-,N/A,,Mostly Cloudy,0,2013-03-03 19:53:00
3:53 PM,46.0,19.0,34,29.84,10.0,WNW,10.4,18.4,N/A,,Mostly Cloudy,290,2013-03-03 20:53:00
5:53 PM,44.1,19.0,37,29.86,10.0,WNW,5.8,-,N/A,,Partly Cloudy,300,2013-03-03 22:53:00
6:53 PM,41.0,19.9,43,29.88,10.0,Calm,Calm,-,N/A,,Clear,0,2013-03-03 23:53:00
7:53 PM,39.9,19.0,43,29.91,10.0,NW,11.5,-,N/A,,Partly Cloudy,320,2013-03-04 00:53:00
8:53 PM,37.0,17.1,44,29.94,10.0,NW,11.5,19.6,N/A,,Clear,310,2013-03-04 01:53:00
9:53 PM,35.1,17.1,48,29.96,10.0,WNW,8.1,-,N/A,,Clear,300,2013-03-04 02:53:00
10:53 PM,34.0,16.0,48,29.97,10.0,WNW,10.4,-,N/A,,Clear,300,2013-03-04 03:53:00
11:53 PM,32.0,14.0,48,29.97,10.0,NW,10.4,-,N/A,,Clear,310,2013-03-04 04:53:00